Wind_Speed
8 9 10 10 11 11 12 13 14 15 16 16 17 18 19 20 20 19 17 17 19 20 18 16 15 14 14 14 14 13 12 11 10 9 7 5 5 6 6 7 7 8 11 12 12 13 12 12 11 11 11 11 11 10 10 9 9 9 10 10 11 12 11 10 9 9 10 10 11 11 11 12 12 13 13 13 13 13 13 12 12 12 11 11 10
9 9 10 11 11 12 13 14 15 15 16 16 16 17 19 19 20 19 18 18 20 20 18 16 16 16 15 14 14 15 14 12 11 11 10 7 6 7 7 7 7 8 11 12 13 13 13 13 12 12 11 11 11 11 10 10 10 10 10 10 11 11 12 11 11 10 10 11 11 11 11 12 12 13 13 14 14 13 13 13 13 12 12 11 11
9 10 11 12 12 13 13 14 15 15 15 15 16 17 18 18 19 19 18 19 20 19 17 16 17 18 16 15 16 15 15 14 12 13 12 10 8 8 8 8 8 9 11 12 13 14 14 14 13 12 12 11 11 10 10 10 10 10 10 11 11 11 12 12 12 11 11 11 11 12 12 12 12 13 13 13 14 14 14 14 13 12 12 11 11
10 11 13 13 13 13 14 14 14 14 15 16 17 17 18 18 18 18 17 17 18 17 16 16 17 17 15 15 16 16 15 15 13 13 13 13 11 9 8 8 9 10 11 12 13 14 14 15 14 13 12 12 11 10 10 10 9 10 10 11 11 11 12 12 13 12 12 11 12 12 12 13 13 13 13 13 14 14 14 14 13 12 12 11 11
10 11 12 13 14 14 14 14 14 15 17 17 17 17 17 17 17 17 17 16 16 15 15 15 16 16 16 15 15 16 15 14 13 13 13 14 12 10 9 9 9 10 11 11 13 13 14 16 15 15 14 13 12 11 10 10 9 9 9 10 11 11 12 12 13 13 13 13 12 13 13 13 13 13 13 14 14 14 14 13 13 12 12 12 11
13 13 13 13 14 14 15 15 16 17 18 17 17 18 17 16 15 15 15 15 15 14 14 14 15 16 16 15 15 16 15 14 14 14 13 14 13 13 12 11 10 10 10 11 12 13 14 16 16 16 15 14 13 12 11 10 10 9 9 10 10 11 12 12 13 14 14 14 14 14 14 14 14 15 15 15 14 14 14 14 13 13 12 12 12
15 15 15 16 16 16 16 17 18 18 18 17 17 17 17 16 14 14 14 14 14 13 12 12 13 14 14 15 14 15 15 15 15 14 13 13 14 14 14 12 11 10 11 10 11 12 14 15 16 16 16 16 15 14 13 12 11 10 10 10 10 11 12 12 13 14 14 15 15 15 15 15 16 16 16 15 15 15 14 14 14 13 13 13 13
16 16 17 18 18 18 18 18 19 19 18 18 18 17 18 17 15 14 13 13 13 12 11 11 12 13 14 16 16 16 16 15 15 14 13 13 14 15 13 13 13 13 12 11 11 12 13 14 15 17 17 17 16 15 14 13 12 12 11 11 11 11 11 12 13 13 14 15 16 16 16 16 16 16 16 16 16 15 15 14 14 14 14 13 13
18 17 17 18 19 20 19 18 18 19 20 20 19 18 17 17 16 15 14 13 13 12 12 12 13 14 14 14 15 15 15 14 13 13 13 13 13 14 13 14 14 14 14 14 12 12 13 13 15 16 17 17 17 16 16 15 14 13 13 12 12 11 12 12 12 13 14 14 15 16 16 16 16 16 16 16 16 15 15 15 15 15 14 14 14
19 18 17 18 20 21 20 18 18 19 20 20 19 18 17 15 14 15 15 14 13 12 13 13 14 14 12 10 10 11 13 12 11 12 12 12 11 11 11 12 13 14 15 15 14 13 12 13 14 15 16 16 17 17 16 16 15 15 15 14 13 13 13 13 13 13 13 14 14 15 15 15 16 16 16 16 16 16 16 15 15 15 15 15 14
19 18 17 19 21 21 21 19 18 19 19 18 17 17 16 14 13 13 13 12 11 11 12 12 12 12 11 8 7 7 9 9 9 10 11 10 10 10 11 12 12 14 14 13 14 14 13 13 13 14 15 16 16 16 16 16 16 16 16 15 15 15 14 14 14 14 14 14 14 14 14 14 15 15 15 15 15 15 15 15 15 15 15 15 14
18 18 18 20 21 21 20 19 19 18 17 16 15 14 14 12 11 11 10 8 8 9 10 9 9 9 9 7 4 3 5 5 7 8 10 9 9 10 11 12 11 12 12 11 12 15 15 13 13 14 14 15 15 15 16 16 16 17 17 17 16 16 16 15 15 15 15 14 14 14 14 14 14 14 15 15 15 15 15 15 15 14 14 14 13
18 17 18 20 21 20 19 19 18 16 14 14 13 12 10 9 8 8 7 5 5 6 7 7 7 7 8 7 6 3 1 2 4 5 7 7 8 9 10 11 11 10 9 10 12 14 14 14 14 14 14 15 15 15 15 16 16 17 17 18 18 17 17 17 17 16 16 16 15 15 14 14 14 14 14 14 14 14 14 14 14 13 13 13 13
19 19 19 20 20 20 19 19 18 14 12 12 11 9 7 5 4 4 4 4 4 4 6 7 7 8 8 9 8 5 3 2 1 1 1 2 3 5 6 8 9 7 8 9 11 12 13 14 15 14 14 15 15 15 15 15 16 17 18 18 18 18 18 18 18 17 17 17 16 16 16 15 15 15 15 15 14 14 14 13 13 13 12 12 13
20 20 20 20 19 19 19 19 17 13 11 11 8 7 5 2 2 2 3 4 4 4 6 7 8 8 9 10 9 8 6 6 5 5 5 4 3 2 2 4 6 7 8 8 9 11 12 14 14 15 15 15 15 15 15 15 16 17 17 17 17 18 18 18 18 18 18 18 18 17 17 17 17 16 16 16 15 15 15 14 13 13 13 13 13
19 19 19 18 19 19 18 18 16 12 11 9 6 4 2 1 2 2 4 4 5 5 6 6 7 7 8 8 8 8 8 7 8 8 8 8 7 6 5 5 5 6 6 7 8 9 10 12 14 15 16 17 16 15 15 16 17 17 17 18 18 18 18 19 19 19 19 19 19 19 19 19 18 18 18 17 17 16 16 16 15 15 15 14 14
16 16 16 16 18 18 17 16 14 12 10 7 4 2 2 2 2 2 3 4 4 5 5 5 6 6 6 6 6 6 6 6 7 7 7 7 6 6 6 6 5 5 6 6 7 8 9 11 12 14 16 17 17 17 16 17 17 17 18 18 19 19 20 20 21 21 21 21 21 21 21 21 20 20 19 19 19 18 18 17 17 17 17 16 16
15 15 15 17 18 19 17 14 12 10 9 6 4 3 3 2 2 1 1 2 3 3 3 3 4 4 5 5 5 4 4 4 4 4 4 4 3 4 4 4 5 5 5 6 7 8 9 10 11 11 12 14 16 17 17 18 18 19 19 19 20 20 21 22 22 23 23 23 23 23 23 23 22 22 21 21 21 20 20 20 19 19 19 19 19
15 15 15 16 17 16 14 11 10 8 7 7 5 4 4 3 4 4 2 1 1 1 1 1 1 2 3 3 3 2 1 1 2 1 0 1 2 2 3 4 4 5 6 6 7 8 9 10 10 10 10 10 12 13 15 16 16 17 18 19 20 21 22 23 24 24 25 25 25 24 24 24 24 24 23 23 22 22 22 22 22 22 21 21 21
15 14 14 13 12 11 10 9 8 6 7 8 7 5 5 4 5 5 3 3 3 4 4 3 3 3 3 3 3 3 3 3 2 2 3 3 3 3 4 5 6 6 7 7 8 8 9 9 10 10 10 10 10 11 12 12 13 14 15 16 18 20 22 23 24 25 25 25 24 23 24 24 24 24 24 24 24 24 24 24 24 24 24 24 24
13 12 11 10 9 8 9 8 7 6 7 8 8 6 6 6 7 6 5 6 6 7 7 6 6 6 6 6 6 6 6 6 6 6 6 6 6 7 7 8 8 9 9 9 9 10 10 11 11 12 12 12 12 12 13 13 14 14 15 16 17 18 20 22 24 24 24 23 22 22 22 23 23 23 24 24 25 26 26 26 26 26 27 26 26
10 9 8 8 8 8 8 7 5 5 6 8 8 7 6 7 8 7 7 8 9 9 10 10 9 9 10 10 10 9 9 9 9 9 9 9 10 10 10 11 12 13 13 13 13 14 14 15 15 15 15 15 15 15 15 15 16 17 17 18 19 19 20 21 22 23 21 19 19 20 22 22 23 23 24 26 26 27 28 28 28 28 28 28 28
6 6 6 6 6 6 5 4 3 4 5 7 7 7 7 8 9 10 10 11 11 11 12 12 13 13 13 13 13 13 12 11 12 12 12 12 13 13 14 15 16 17 17 17 18 18 18 19 19 19 19 19 18 18 18 18 19 19 21 22 22 22 23 23 24 25 21 18 19 22 22 21 23 25 26 27 28 28 29 28 27 27 27 28 28
2 2 3 3 3 2 1 2 4 5 6 6 7 8 8 9 11 12 13 13 13 13 13 14 15 16 17 17 17 17 16 15 15 16 16 16 17 17 17 19 20 21 21 21 22 22 23 23 23 23 23 23 22 22 22 22 23 23 25 26 25 25 26 26 28 28 23 22 27 28 26 25 27 28 27 27 29 30 28 25 23 24 27 28 29
2 2 2 3 3 2 0 3 6 7 7 7 9 10 10 10 12 14 15 15 15 16 16 17 17 18 19 20 20 20 20 19 19 19 20 20 21 21 22 23 24 25 24 24 24 25 26 26 26 26 26 26 26 26 26 26 26 27 29 30 29 28 28 29 30 28 25 27 32 31 29 29 30 30 29 29 30 29 26 25 25 26 27 28 30
3 3 3 3 3 3 3 5 8 9 10 10 11 11 12 13 14 16 17 17 17 18 19 20 20 21 22 22 23 24 23 22 22 22 23 24 25 26 26 27 27 28 27 27 27 27 28 28 29 29 30 30 30 30 30 30 30 31 32 33 32 31 31 31 30 28 27 29 32 31 31 31 31 31 31 31 29 25 25 28 30 29 28 29 30
4 4 5 5 6 6 7 8 9 10 11 12 13 14 15 16 17 18 19 19 20 20 21 22 23 24 24 25 25 26 26 25 24 24 25 27 28 29 30 30 30 30 30 29 29 30 31 31 32 33 33 33 33 33 33 34 34 35 36 36 35 34 35 35 32 30 30 30 31 32 33 32 33 32 32 33 29 24 25 30 31 30 30 30 31
5 5 6 7 8 8 10 10 11 12 13 14 15 16 17 18 19 20 21 21 22 22 23 24 25 25 26 27 28 28 28 28 27 26 27 28 29 30 31 31 32 32 32 32 32 33 33 34 35 36 36 36 37 37 37 37 37 38 39 39 38 38 39 39 36 33 33 33 33 33 34 35 35 34 34 34 31 26 28 31 31 30 30 31 32
6 6 7 9 10 11 12 13 13 14 15 16 17 18 18 18 20 22 23 23 24 24 24 26 26 27 27 28 30 30 30 30 29 29 29 30 30 31 31 32 33 33 34 33 34 34 35 37 37 37 39 39 40 40 40 40 40 41 41 42 42 42 43 43 41 38 37 36 36 36 36 37 37 37 37 36 33 30 31 33 33 32 32 32 32
7 7 9 10 11 13 14 14 15 16 17 18 19 20 19 19 21 22 23 24 25 26 26 27 28 29 30 30 31 32 32 32 32 32 32 32 32 32 32 32 32 33 34 35 36 37 38 39 39 39 40 41 42 42 42 42 42 42 43 44 44 45 45 45 44 43 40 40 39 39 38 38 39 40 39 38 36 35 35 35 34 34 34 34 33
9 8 9 9 11 13 14 14 15 16 18 19 21 21 20 21 22 23 24 26 27 28 29 29 30 31 31 32 32 32 33 33 34 35 35 35 35 34 34 34 34 34 35 35 37 38 39 40 41 41 41 42 43 43 42 42 42 43 43 45 46 47 47 47 46 46 44 43 42 42 41 41 41 42 43 41 40 39 37 36 35 35 36 36 35
10 10 10 10 11 13 14 15 15 16 18 20 21 22 22 23 24 25 26 27 27 28 29 30 30 30 30 31 31 31 31 31 32 33 33 33 34 35 35 35 36 36 36 36 37 38 39 41 41 42 42 43 43 43 44 43 43 44 44 45 46 47 48 48 48 48 47 46 44 44 44 44 43 44 45 44 43 41 40 38 37 37 38 37 37
11 11 12 12 13 14 15 16 17 18 21 22 23 23 23 24 25 26 27 28 28 28 29 29 30 30 30 30 31 31 31 31 31 32 32 33 34 34 34 35 35 35 36 36 36 37 39 40 41 42 43 43 43 43 43 43 43 44 44 45 46 47 48 48 48 48 47 46 45 44 44 45 45 45 45 45 44 42 41 41 39 39 40 39 38
11 11 12 13 14 15 16 17 18 20 22 23 23 24 24 25 26 28 29 30 30 30 30 30 31 31 31 31 31 32 32 32 33 33 33 34 35 35 35 36 36 36 36 36 36 36 37 39 40 41 42 43 44 43 43 43 43 43 44 45 46 47 47 47 47 47 47 46 46 45 45 45 45 45 46 46 45 43 43 42 42 41 41 40 39
12 13 14 15 16 17 18 19 20 22 24 24 25 25 26 27 29 30 31 32 32 32 32 32 32 33 33 33 33 33 33 34 34 35 35 36 37 37 37 38 38 38 38 37 37 37 37 37 38 39 40 42 43 44 44 44 43 43 44 44 45 46 46 47 47 47 47 47 47 46 46 45 45 45 45 46 46 45 44 43 43 43 43 42 41
13 15 16 17 18 19 20 21 22 24 26 27 27 28 28 29 30 31 31 32 33 33 33 33 34 33 33 33 33 33 33 33 33 34 34 35 36 37 38 38 39 39 39 39 39 38 37 37 38 39 39 40 42 43 44 45 45 45 45 45 45 45 46 46 46 47 47 47 47 47 46 46 46 46 46 46 46 46 46 45 45 44 44 43 43
14 16 17 18 20 21 22 22 23 25 27 28 28 29 30 31 30 31 31 31 32 32 32 32 32 31 31 31 31 31 31 31 31 32 32 33 34 35 36 37 37 38 39 39 39 39 38 37 38 38 39 40 41 42 44 45 45 46 46 46 46 46 46 46 46 46 47 46 46 46 46 46 47 47 47 47 47 47 47 47 46 46 45 45 44
15 16 18 19 21 23 24 24 25 26 26 27 28 29 30 30 30 30 30 30 30 30 29 29 29 29 29 29 29 30 30 31 31 32 33 34 35 36 37 37 37 38 38 39 39 39 39 39 39 39 39 40 40 41 43 44 45 46 46 47 48 48 47 48 48 48 48 47 47 47 46 46 47 47 46 46 46 47 47 47 47 47 46 46 46
17 18 19 20 22 23 24 25 26 26 26 27 27 28 29 29 29 29 29 29 28 28 28 28 28 29 29 29 30 30 31 32 33 34 35 36 37 38 39 39 40 40 41 41 41 41 41 41 41 41 41 41 41 41 42 42 43 44 44 45 46 47 48 47 48 48 49 49 49 49 49 49 48 48 47 46 46 46 46 47 48 48 48 47 47
18 19 20 21 22 24 24 25 25 25 26 26 26 27 28 28 28 28 28 28 28 28 29 29 29 30 30 31 31 32 33 34 35 36 37 38 39 40 41 42 42 43 44 44 44 44 44 44 44 43 43 43 43 43 43 43 43 43 44 44 44 45 46 46 46 47 48 49 49 50 50 51 51 51 50 49 48 47 47 47 48 48 48 48 48
18 19 19 21 24 25 25 26 26 25 25 25 25 26 27 27 27 28 28 29 29 30 30 30 31 31 32 32 33 34 35 37 38 39 40 41 42 43 43 44 44 44 45 45 46 46 46 46 46 46 46 46 46 46 45 45 45 44 45 45 44 44 45 46 46 46 47 47 47 48 49 49 49 50 50 49 49 49 49 49 49 50 50 50 50
18 19 21 23 25 25 26 27 27 27 25 25 25 26 27 27 28 28 29 30 30 31 31 32 32 33 34 35 35 37 38 39 41 42 43 44 45 45 46 46 46 45 45 44 44 44 44 45 46 47 47 47 47 47 46 46 46 46 46 47 46 46 46 46 46 48 48 47 46 47 47 48 47 47 47 47 48 49 49 50 50 51 51 51 51
19 21 23 24 25 25 26 27 27 27 26 26 26 26 27 28 29 29 30 31 31 32 32 33 34 35 36 37 38 39 40 42 43 44 45 45 46 46 46 46 46 45 44 42 41 40 39 38 38 40 41 42 43 44 44 43 44 45 46 47 47 47 48 47 46 47 48 48 47 47 47 49 48 47 47 47 47 47 48 48 49 49 50 50 51
21 23 24 25 25 25 26 26 27 27 27 26 27 27 28 29 30 30 31 32 33 33 34 35 36 37 38 40 40 41 42 43 44 44 44 44 45 44 44 43 41 40 39 37 35 34 32 31 30 32 34 35 37 38 39 38 38 39 40 42 43 45 46 46 44 44 47 49 49 47 48 49 50 49 48 49 49 49 49 48 48 48 48 48 48
22 23 24 25 25 25 25 26 27 27 27 27 28 28 29 30 31 32 33 33 34 35 36 37 38 39 40 41 41 42 42 42 42 41 41 40 40 39 38 36 34 33 32 31 30 28 27 27 28 30 31 31 32 33 34 33 32 32 32 32 33 35 36 38 38 38 41 47 49 49 48 48 50 50 49 49 50 50 49 49 49 48 48 48 48
23 24 25 25 25 25 25 26 27 27 28 28 28 29 30 31 32 33 34 35 36 38 39 40 41 41 41 41 40 39 39 38 37 36 35 35 35 34 33 31 31 30 30 30 29 28 27 27 28 29 29 28 28 29 30 30 29 28 27 27 27 28 28 30 31 31 34 39 44 44 42 42 45 47 47 48 49 50 50 50 49 49 49 49 49
25 25 25 25 25 25 26 26 27 28 28 28 29 30 31 32 33 35 36 38 40 41 42 42 42 41 40 38 37 35 34 33 32 32 31 31 31 30 30 29 29 29 29 29 29 29 28 29 28 28 28 26 26 27 27 27 27 27 26 26 26 26 26 27 28 29 30 33 35 34 33 33 36 38 39 41 43 45 47 49 50 50 50 49 49
25 26 25 25 25 26 26 27 27 27 28 28 29 30 32 33 35 37 39 41 42 42 42 41 40 39 37 34 32 30 29 29 29 29 29 30 30 29 28 28 28 28 28 28 28 28 28 28 28 27 26 25 24 24 24 24 24 24 24 23 23 23 23 23 25 26 28 29 30 29 28 29 32 33 33 34 35 37 40 43 46 48 50 50 49
25 25 25 25 26 26 26 27 27 27 28 29 30 32 33 35 37 39 40 40 40 39 39 37 36 33 31 29 28 27 28 28 28 28 28 28 28 27 27 28 28 28 28 28 28 27 27 26 25 24 23 22 21 21 21 21 20 20 21 20 20 19 19 20 22 23 25 26 27 27 26 27 30 31 31 32 33 34 35 37 39 42 44 47 48
25 24 25 26 26 26 26 26 27 28 29 30 32 34 36 38 38 38 37 36 36 35 34 33 31 30 29 28 28 28 28 28 28 27 27 27 26 26 26 27 28 28 28 28 27 26 25 23 23 22 21 20 19 18 18 18 18 18 18 19 19 19 19 19 21 22 24 25 25 25 25 26 28 29 29 30 32 33 34 35 36 37 38 40 42
24 24 25 26 26 26 26 26 27 28 30 32 34 36 37 37 36 34 33 32 32 31 31 30 30 30 30 30 30 30 29 28 27 26 26 25 25 25 25 25 27 28 28 28 27 25 24 22 22 21 20 19 18 17 17 18 17 17 18 19 20 20 21 21 22 24 24 24 23 23 23 24 25 26 27 29 31 33 34 35 36 36 36 36 37
Wind_Direction
317 311 307 307 309 308 308 312 315 317 317 316 316 314 311 308 306 304 300 294 296 303 298 285 284 284 282 279 275 274 271 269 272 270 261 245 239 238 230 219 206 198 200 196 193 194 188 180 178 173 169 167 165 167 170 172 175 178 181 181 180 177 175 176 183 187 183 180 179 179 178 177 178 180 182 185 188 190 192 193 193 194 193 193 195
303 299 298 299 303 305 307 311 314 316 314 317 319 315 311 309 309 307 303 297 295 297 293 284 284 286 285 280 274 272 270 268 267 263 253 236 222 223 225 220 207 201 202 199 195 196 194 187 185 181 176 175 173 171 173 175 177 181 185 188 189 188 185 182 185 191 192 190 187 186 186 186 186 186 186 188 189 191 192 194 195 194 195 195 197
290 291 293 294 297 300 305 311 316 318 318 320 320 315 313 312 311 308 305 301 296 292 286 284 286 289 288 282 275 268 266 267 265 261 255 242 224 212 214 216 210 206 204 202 197 195 198 195 192 190 184 182 182 179 178 180 180 182 187 190 192 194 194 191 191 194 196 199 197 193 193 194 194 193 193 192 193 194 195 197 197 197 198 198 201
287 292 295 297 299 302 306 312 317 320 321 321 320 318 317 317 315 311 306 304 299 290 283 285 288 290 289 285 280 272 265 264 262 261 258 247 231 208 204 211 212 207 205 208 202 196 198 199 198 197 193 190 189 188 187 187 186 188 190 192 195 197 199 198 197 197 199 204 206 203 201 200 200 200 199 199 198 199 200 201 201 202 203 203 206
296 298 299 303 306 308 310 313 317 321 321 320 320 321 323 323 321 315 308 304 300 292 286 287 286 286 287 285 282 276 270 264 259 255 251 244 231 206 196 206 212 207 205 211 208 199 199 201 201 202 202 199 197 195 195 196 196 196 195 196 199 200 200 202 201 200 200 203 208 210 210 207 205 205 204 205 204 204 205 206 206 207 208 208 211
304 304 307 311 313 314 315 315 317 321 321 320 321 324 327 329 329 322 313 308 304 297 292 287 282 282 283 282 279 275 271 263 255 250 245 244 232 210 198 202 207 204 205 212 210 205 203 202 202 204 207 206 205 203 201 202 204 204 204 203 204 205 204 204 204 201 201 202 205 209 212 213 211 208 207 207 207 208 208 209 210 211 212 213 214
306 308 314 319 318 318 317 315 317 320 319 319 322 326 326 326 329 324 316 315 312 306 304 295 285 282 281 281 280 275 270 261 252 247 245 245 236 219 206 201 202 202 205 211 212 211 209 206 204 206 210 211 210 210 208 208 208 210 211 210 210 211 210 209 209 206 203 203 203 205 209 212 213 211 210 209 209 210 211 212 213 214 215 215 216
307 311 318 321 319 318 316 315 318 319 318 320 324 327 325 322 324 319 314 316 316 313 314 308 296 291 288 286 281 273 266 259 250 243 241 240 236 231 218 204 201 203 203 204 210 214 213 211 209 208 211 214 215 215 214 214 214 214 216 217 216 217 217 216 215 213 209 207 206 205 207 210 212 213 212 211 211 212 213 214 215 216 217 217 218
305 310 316 317 316 314 312 314 317 319 318 319 324 327 324 323 323 318 315 318 317 316 313 308 304 302 297 290 284 271 259 253 249 242 239 236 235 237 229 213 208 207 204 200 206 212 211 214 215 213 213 215 217 218 219 219 218 218 218 220 221 221 222 221 221 221 219 215 211 210 209 209 211 214 215 214 213 214 214 215 217 218 219 220 221
300 305 310 312 311 309 307 309 314 317 317 316 320 324 322 322 323 318 319 320 317 317 316 313 312 311 303 294 289 271 252 245 245 241 238 236 233 235 231 224 217 211 208 200 202 208 209 211 216 218 218 217 219 221 221 223 223 222 221 222 223 224 224 225 224 225 226 225 221 218 216 214 214 215 217 218 217 216 216 217 219 220 221 222 223
294 299 304 307 309 308 306 306 308 311 314 314 317 319 316 318 323 321 321 322 318 318 322 319 316 317 314 307 296 269 250 242 242 240 240 238 236 236 234 230 219 212 210 201 202 209 208 210 212 217 222 222 221 222 223 225 226 226 225 224 226 227 227 227 226 226 227 229 229 226 224 223 221 220 219 221 221 221 221 221 221 223 224 226 226
290 294 298 304 308 310 309 308 308 308 309 313 315 314 311 313 324 326 323 324 322 323 332 332 326 333 339 337 326 273 253 253 251 248 249 250 247 245 243 231 217 212 210 201 206 211 208 210 213 215 221 223 223 223 224 226 228 228 227 226 227 229 230 230 229 228 228 228 230 230 229 228 228 228 226 224 225 226 226 225 225 226 227 228 227
287 290 293 301 307 309 309 310 312 310 307 311 312 309 308 310 327 336 335 339 337 338 358 8 3 4 12 16 15 10 304 273 270 259 257 261 254 252 252 234 218 215 212 205 209 211 209 212 216 218 220 222 223 223 224 226 228 229 229 228 228 230 232 233 232 232 231 230 230 230 230 229 229 230 231 230 228 227 228 229 228 228 228 228 228
283 287 290 296 302 304 305 309 313 311 307 308 308 308 310 316 336 352 6 27 30 27 40 47 43 38 41 42 36 36 59 81 83 185 221 253 242 245 252 233 219 215 212 212 212 212 215 216 216 221 223 225 226 224 225 227 229 230 230 230 230 231 233 235 235 234 233 233 232 232 231 230 229 229 231 231 230 228 228 227 228 228 228 228 227
281 283 285 288 294 297 300 306 309 308 306 305 305 307 315 339 24 36 55 73 77 67 63 62 59 56 56 55 51 54 67 79 92 104 104 97 110 146 180 199 207 209 210 214 211 211 218 218 216 220 225 229 229 228 229 230 232 234 234 234 234 235 236 237 237 237 235 235 234 234 234 233 232 231 231 231 231 231 229 227 225 225 225 226 226
283 282 280 280 286 292 296 302 304 304 302 297 294 297 307 74 109 99 91 95 99 88 74 64 58 58 61 61 60 62 62 68 86 98 98 94 94 102 118 137 165 187 199 206 206 207 214 218 219 221 225 228 230 230 232 234 236 237 237 238 238 238 238 237 237 237 237 236 235 235 235 235 234 233 233 233 232 232 231 229 227 225 224 224 225
285 283 278 278 283 288 292 296 296 298 293 278 264 250 215 159 156 132 108 104 99 87 73 63 55 51 52 55 60 63 62 68 86 94 91 91 93 101 115 125 139 158 175 186 193 199 205 211 217 221 225 227 228 230 232 235 237 237 237 238 239 240 240 239 238 237 237 237 236 236 235 235 235 235 234 234 234 233 231 231 230 227 225 224 224
282 281 280 282 283 283 286 287 286 289 280 256 223 203 209 203 219 210 144 114 86 75 67 59 50 43 42 42 47 55 66 81 98 101 90 93 104 118 136 148 154 164 173 179 187 195 202 207 210 215 218 221 224 227 231 235 238 239 239 239 239 240 241 241 239 238 237 236 236 236 236 236 236 235 235 234 235 234 233 231 230 229 228 226 225
277 278 282 285 284 279 276 276 277 275 258 232 205 204 223 229 243 250 254 322 0 1 355 30 18 16 23 18 15 16 32 76 116 146 160 191 184 180 183 187 188 192 194 195 198 200 204 208 211 214 214 215 218 221 226 230 234 237 239 240 240 240 240 240 239 238 237 235 235 236 237 238 238 238 238 237 236 236 236 234 232 230 230 229 228
275 277 282 287 284 271 264 268 269 254 229 214 203 217 238 238 247 259 278 291 287 284 289 297 300 304 306 296 291 289 285 285 272 259 269 268 252 247 235 225 222 220 219 219 219 219 219 218 220 221 221 222 222 223 226 228 231 234 237 239 239 238 239 238 238 238 237 236 236 237 239 240 240 241 241 241 240 240 239 238 236 233 231 231 230
275 276 280 280 275 267 265 268 258 233 218 206 207 229 248 249 255 264 275 277 275 279 285 288 290 291 288 284 281 279 279 282 281 274 272 270 265 266 264 259 254 250 247 243 241 239 238 236 234 233 233 233 232 232 233 234 236 238 240 241 240 239 239 239 239 239 239 239 239 240 241 242 243 243 242 242 241 241 241 241 240 237 235 234 233
278 278 278 274 273 273 269 263 244 222 213 206 216 239 251 255 263 269 271 272 274 280 285 288 289 287 286 285 284 283 283 284 283 278 274 271 267 264 263 263 260 259 257 254 250 246 242 240 240 240 241 243 243 242 241 241 242 243 245 246 245 243 243 243 243 243 242 242 243 242 241 242 242 242 241 241 240 239 239 239 240 241 240 239 238
290 290 285 283 287 285 271 254 226 212 217 217 228 246 252 257 268 273 272 272 275 281 286 289 289 288 287 286 284 285 285 283 279 275 272 267 265 262 258 257 256 254 254 254 254 252 249 247 246 245 245 245 246 246 246 247 249 250 250 250 249 249 250 251 251 251 250 251 250 246 244 243 244 243 241 242 242 240 238 238 240 244 246 247 245
342 321 314 325 336 333 286 219 218 233 245 246 249 254 255 262 270 272 274 276 279 281 282 283 285 286 287 286 285 285 285 282 278 276 273 268 264 261 256 254 253 252 251 251 251 252 253 253 253 253 252 250 249 248 247 248 249 251 251 252 251 249 250 251 252 252 251 251 252 252 250 249 249 250 250 250 250 249 249 251 251 249 249 249 249
56 22 6 10 9 5 2 221 243 260 269 270 266 264 266 271 274 274 276 279 282 283 284 283 283 283 284 286 286 285 284 282 279 277 275 270 267 263 259 256 256 255 255 253 252 252 253 254 255 256 256 256 255 254 252 251 250 250 251 252 252 251 249 247 248 249 245 243 247 251 251 251 251 253 254 254 253 255 259 260 256 251 248 248 248
37 7 354 342 333 319 287 264 268 277 281 282 281 281 282 281 279 279 281 283 285 286 287 286 286 284 284 284 284 283 282 280 278 277 276 273 270 268 266 265 265 265 265 262 259 256 256 255 255 255 255 255 255 255 255 255 254 253 253 253 253 254 255 253 253 252 248 246 248 250 250 251 253 253 254 254 254 254 256 254 250 247 246 246 246
12 353 335 323 318 306 295 291 289 289 291 293 292 290 288 286 285 284 285 286 287 287 287 286 286 285 285 284 283 282 282 280 278 276 274 273 273 273 272 271 270 269 268 266 262 259 257 255 254 253 253 253 252 252 252 253 253 254 255 254 253 255 256 256 255 252 252 253 253 253 255 256 257 256 256 256 255 253 252 254 254 249 246 245 245
355 341 327 315 311 307 303 301 298 296 295 293 291 289 289 289 290 288 288 288 289 288 288 287 287 287 287 287 285 285 284 283 281 278 274 272 272 272 271 270 269 268 267 265 262 260 258 256 255 254 253 252 251 251 251 251 251 252 254 255 254 255 255 255 253 250 249 251 251 253 256 258 258 258 257 256 255 254 253 255 257 254 250 247 246
333 326 319 313 312 309 304 301 300 298 295 291 288 287 287 289 289 288 289 289 289 288 288 288 288 287 287 286 286 286 286 286 283 280 277 274 271 269 268 268 267 267 266 264 262 260 258 257 256 255 254 253 251 250 249 250 250 251 253 254 255 255 256 256 255 253 250 251 251 250 251 254 257 258 258 257 256 253 251 253 254 255 254 251 249
319 317 312 309 305 298 296 296 295 293 291 290 287 286 286 287 287 286 288 289 289 289 289 288 288 288 287 287 286 287 287 286 284 282 279 277 275 273 272 270 267 265 264 262 261 259 258 257 256 255 254 255 254 253 252 252 252 252 253 254 255 256 256 257 257 256 254 253 254 253 251 252 253 254 256 257 256 251 249 250 251 252 252 252 251
311 308 300 294 289 287 288 289 287 288 288 287 286 288 290 291 291 291 291 293 293 294 294 293 292 292 291 290 289 288 287 286 284 283 282 282 280 278 276 273 270 267 264 262 261 261 261 259 258 256 254 254 255 255 254 254 253 253 253 253 254 255 257 257 257 258 256 255 254 255 254 253 252 252 252 253 254 252 251 250 250 250 251 251 251
311 308 301 296 292 290 290 290 292 294 293 292 293 298 300 300 300 300 299 299 298 298 298 298 297 296 295 294 293 291 289 287 285 285 284 283 281 280 278 276 274 272 269 266 264 263 263 262 262 261 259 257 256 255 254 254 252 252 251 251 252 252 254 255 256 256 256 256 255 254 255 254 254 254 254 254 254 255 254 253 252 252 252 251 252
315 312 308 305 301 300 301 302 305 305 301 300 303 305 306 305 304 304 303 301 300 299 299 298 298 297 296 295 294 292 291 290 288 287 286 285 283 282 281 279 277 276 274 271 269 266 265 264 264 265 265 264 262 260 259 258 256 255 254 253 253 253 253 254 254 255 256 256 256 255 254 254 254 254 255 255 255 255 255 254 253 252 252 251 251
313 311 309 306 305 305 306 308 309 306 303 304 306 306 306 306 305 304 303 301 299 298 297 297 296 296 295 294 293 292 291 290 289 289 288 286 285 284 283 281 280 278 276 274 272 270 268 267 266 265 266 266 266 265 263 262 261 259 258 257 257 256 256 256 256 257 257 256 256 255 254 254 254 254 254 255 255 254 254 253 253 251 251 250 250
315 315 314 310 309 309 309 312 312 308 306 306 306 305 304 303 302 302 300 299 297 296 296 295 295 294 294 293 292 291 291 290 289 288 287 286 286 285 284 283 282 281 279 277 275 273 270 269 268 266 266 266 267 267 266 265 263 262 261 260 259 259 258 258 258 258 258 258 257 257 256 255 254 254 254 255 255 255 254 253 252 252 251 250 249
319 319 317 313 312 313 313 315 313 308 305 305 304 303 301 300 300 299 298 297 296 296 295 295 295 295 294 294 293 293 291 290 289 288 287 286 286 285 285 284 283 282 281 280 278 276 273 270 267 266 265 264 265 265 266 266 265 264 263 262 261 261 260 260 260 260 260 260 259 259 259 258 257 256 256 255 255 255 254 253 251 251 251 250 250
321 319 316 313 312 312 312 311 308 304 303 303 302 301 300 299 298 298 297 297 296 296 296 296 296 296 296 296 295 294 293 292 291 290 289 288 287 286 285 284 284 283 282 281 279 277 275 272 269 267 265 263 262 262 262 263 264 264 264 263 262 262 261 261 260 260 260 260 260 260 259 259 258 257 257 257 257 256 256 255 253 251 250 250 250
319 315 312 311 310 310 310 310 307 304 303 301 300 299 299 299 300 300 299 299 298 299 299 299 299 299 298 297 296 295 295 294 293 292 291 290 289 288 287 286 285 284 283 282 281 279 277 276 274 272 270 267 265 263 262 262 262 263 263 263 263 263 262 261 261 261 260 260 259 259 258 258 258 257 257 257 257 257 258 257 257 255 253 251 250
318 314 311 310 309 309 310 309 308 306 305 304 303 302 302 302 302 302 302 302 302 302 302 301 301 300 298 298 297 297 296 296 295 294 293 292 291 290 289 289 287 286 284 283 281 280 279 278 276 274 273 272 270 268 267 265 264 264 263 263 264 264 264 263 262 262 261 261 260 259 258 257 257 257 256 255 255 255 256 256 257 257 256 255 253
316 313 311 311 311 311 312 310 308 308 308 308 307 306 305 305 305 305 305 305 305 304 303 302 301 300 299 299 299 298 297 296 295 293 292 290 289 289 288 287 286 286 285 284 282 281 279 278 276 274 273 272 271 269 268 268 266 266 265 263 263 263 264 263 262 261 261 261 260 260 259 258 257 257 256 255 254 253 253 253 254 255 256 256 255
315 312 311 312 313 314 314 311 310 311 311 311 310 308 308 307 307 307 306 306 305 303 302 301 301 300 300 299 298 297 296 294 293 292 290 289 289 288 287 286 285 284 284 283 283 282 281 279 278 276 274 272 270 269 268 267 266 266 265 264 262 261 261 262 262 261 260 260 260 260 260 259 258 258 258 257 256 254 253 252 252 252 253 254 254
315 315 316 315 315 315 315 313 313 315 315 314 312 311 310 309 308 307 306 304 303 302 302 301 301 300 299 298 296 295 294 293 292 291 290 290 289 288 287 286 285 284 284 283 282 281 281 280 279 278 277 275 273 271 269 268 266 265 264 264 263 262 261 260 261 261 261 260 259 260 261 260 259 258 258 257 257 256 255 254 253 252 252 252 252
317 320 319 318 317 316 316 315 315 316 316 315 313 310 308 307 307 306 304 303 302 302 301 300 300 298 297 296 295 295 294 293 292 292 291 291 290 290 289 288 287 286 285 284 284 283 282 281 280 279 278 278 277 275 273 271 269 267 265 264 262 262 261 260 260 261 261 260 259 259 259 260 259 258 257 257 256 256 255 254 254 253 253 252 252
321 322 319 317 317 316 316 316 316 316 315 314 311 309 308 307 306 306 305 304 303 302 300 299 298 298 297 297 296 295 294 293 293 292 292 292 292 292 292 291 290 290 289 287 286 285 284 282 281 280 279 279 278 278 277 276 274 272 269 267 265 263 262 262 262 261 261 260 260 259 258 258 258 258 257 257 256 255 255 255 254 254 254 253 253
323 322 319 317 317 317 317 317 316 315 314 313 311 310 309 308 308 307 306 304 302 301 300 299 299 298 298 297 296 295 294 293 293 294 295 297 297 296 295 295 294 293 292 291 288 286 284 284 284 283 281 279 278 278 279 280 279 278 275 272 269 266 264 263 263 263 263 261 259 259 259 258 258 258 258 258 257 257 256 256 255 254 254 254 253
324 321 319 318 319 320 320 318 317 316 314 313 312 311 310 310 309 307 306 304 303 302 302 302 301 300 299 298 297 296 295 295 297 299 302 303 302 300 298 297 296 295 293 291 288 285 284 284 286 285 283 280 277 276 277 278 279 278 276 273 271 268 267 265 264 264 265 263 261 260 261 261 261 261 259 258 258 258 258 257 256 254 253 253 253
323 321 321 321 321 321 321 319 318 316 314 313 312 312 311 310 309 308 307 306 306 306 305 304 303 301 300 299 298 297 298 300 303 306 307 306 305 303 299 297 296 296 294 292 288 285 283 284 286 286 283 279 277 275 275 276 276 276 274 272 269 268 267 267 267 265 265 266 266 266 266 267 267 265 263 261 259 258 257 256 255 254 253 252 252
323 322 322 322 323 323 322 321 318 316 314 313 313 312 312 311 311 311 311 311 310 309 308 306 304 303 303 302 302 303 305 307 309 309 308 307 308 306 303 299 298 297 296 295 292 289 287 287 288 287 283 280 278 277 276 275 274 274 272 270 269 268 268 267 266 266 266 268 271 272 271 269 268 268 266 264 263 260 258 256 255 254 253 253 252
323 323 323 324 325 325 324 322 319 316 315 315 315 314 314 315 316 316 316 315 314 313 312 312 312 313 313 313 313 314 313 313 313 311 310 310 311 310 307 304 302 300 298 297 296 294 292 290 288 286 284 281 279 278 277 275 274 274 274 274 273 273 271 269 269 269 269 269 272 274 273 269 268 269 267 265 264 262 260 259 257 255 254 253 252
324 324 324 325 327 327 325 322 318 317 317 318 318 318 319 320 321 321 321 320 320 321 321 322 323 323 322 321 320 319 318 317 317 316 314 313 313 312 310 308 305 303 301 300 299 297 295 292 290 288 286 284 282 280 278 275 274 273 275 277 278 277 274 272 271 271 272 273 274 276 274 271 270 269 266 264 262 260 258 257 257 256 255 254 254
324 325 327 329 330 329 325 321 318 319 321 322 322 323 324 325 326 327 327 326 327 328 328 327 327 326 324 323 321 321 320 320 321 319 317 316 314 312 311 309 307 305 304 303 302 301 298 295 294 292 288 284 282 280 277 273 271 271 272 274 275 275 274 272 271 272 274 277 279 278 275 271 269 267 265 262 261 260 258 256 255 254 254 254 254
Height
5929 5927 5926 5925 5924 5924 5923 5922 5921 5920 5918 5918 5917 5915 5914 5913 5912 5912 5911 5911 5910 5909 5909 5908 5907 5906 5905 5906 5905 5905 5904 5904 5904 5903 5904 5903 5903 5903 5903 5903 5903 5903 5904 5905 5905 5906 5906 5906 5907 5907 5906 5906 5906 5906 5907 5907 5907 5907 5908 5908 5907 5907 5907 5908 5909 5909 5909 5909 5910 5910 5910 5910 5910 5911 5911 5911 5912 5912 5913 5913 5913 5914 5914 5915 5915
5928 5927 5926 5924 5924 5923 5922 5922 5921 5919 5918 5916 5915 5914 5913 5911 5910 5910 5910 5909 5908 5907 5906 5905 5905 5904 5904 5905 5905 5904 5903 5903 5903 5902 5902 5902 5901 5902 5902 5902 5902 5903 5903 5904 5904 5905 5905 5906 5906 5906 5906 5906 5906 5906 5906 5906 5907 5907 5907 5907 5907 5907 5907 5907 5907 5908 5909 5909 5909 5909 5909 5910 5910 5910 5910 5911 5911 5911 5912 5912 5913 5913 5914 5914 5914
5927 5926 5925 5924 5923 5922 5922 5921 5920 5918 5917 5915 5914 5912 5911 5910 5909 5909 5908 5907 5906 5905 5904 5903 5903 5902 5903 5903 5902 5902 5902 5902 5902 5901 5901 5901 5900 5900 5901 5901 5902 5902 5903 5903 5903 5904 5904 5905 5906 5906 5906 5906 5906 5906 5906 5906 5906 5906 5907 5907 5907 5907 5907 5907 5907 5907 5908 5908 5908 5908 5909 5909 5910 5910 5910 5910 5911 5911 5911 5912 5912 5913 5913 5913 5913
5925 5924 5923 5922 5922 5921 5921 5919 5918 5917 5915 5914 5913 5911 5910 5909 5908 5907 5906 5905 5904 5903 5902 5902 5901 5901 5901 5900 5900 5899 5899 5900 5900 5900 5900 5900 5900 5899 5900 5900 5901 5902 5902 5902 5902 5902 5903 5904 5905 5906 5906 5906 5906 5906 5906 5906 5906 5906 5906 5906 5906 5907 5907 5907 5906 5907 5907 5908 5908 5908 5908 5909 5909 5909 5910 5910 5910 5911 5911 5911 5912 5912 5912 5912 5913
5923 5922 5921 5921 5920 5920 5919 5918 5917 5916 5914 5913 5911 5910 5909 5908 5907 5906 5904 5903 5902 5901 5901 5900 5900 5899 5898 5898 5898 5897 5897 5898 5898 5898 5898 5898 5898 5898 5898 5899 5901 5901 5900 5901 5901 5901 5902 5903 5904 5905 5905 5905 5905 5905 5905 5906 5906 5906 5906 5906 5906 5906 5906 5906 5906 5906 5906 5907 5907 5908 5908 5908 5908 5909 5909 5910 5910 5910 5910 5911 5911 5911 5911 5912 5912
5920 5920 5920 5920 5919 5918 5917 5916 5915 5914 5913 5911 5910 5909 5908 5907 5906 5904 5903 5902 5901 5900 5899 5898 5898 5897 5896 5896 5896 5896 5896 5896 5896 5896 5896 5897 5897 5897 5896 5897 5899 5899 5899 5899 5900 5900 5901 5902 5902 5903 5904 5904 5904 5904 5904 5905 5905 5905 5905 5905 5905 5906 5906 5906 5905 5905 5905 5906 5906 5907 5908 5908 5908 5908 5908 5909 5909 5909 5909 5910 5910 5910 5911 5911 5911
5917 5917 5917 5917 5916 5916 5915 5914 5913 5912 5911 5910 5909 5908 5907 5906 5905 5903 5902 5901 5900 5899 5898 5896 5895 5894 5894 5894 5894 5894 5894 5894 5893 5894 5895 5895 5896 5895 5894 5894 5896 5896 5896 5897 5898 5899 5900 5901 5901 5901 5902 5903 5903 5903 5903 5903 5904 5904 5905 5905 5905 5905 5905 5905 5905 5905 5905 5905 5905 5905 5906 5907 5907 5907 5907 5907 5908 5908 5908 5909 5909 5909 5909 5910 5910
5914 5914 5914 5914 5914 5913 5913 5912 5912 5910 5909 5908 5908 5907 5906 5904 5904 5902 5901 5900 5899 5898 5896 5894 5893 5893 5892 5892 5892 5892 5892 5892 5891 5892 5893 5893 5894 5894 5894 5893 5894 5895 5895 5896 5897 5898 5899 5899 5899 5900 5900 5901 5901 5901 5902 5902 5902 5903 5903 5904 5904 5904 5904 5904 5905 5904 5904 5904 5904 5904 5905 5905 5906 5906 5906 5906 5907 5907 5907 5907 5908 5908 5908 5909 5909
5912 5912 5913 5912 5912 5911 5911 5911 5910 5909 5907 5906 5906 5906 5905 5903 5902 5900 5899 5898 5898 5897 5895 5893 5892 5891 5891 5890 5889 5889 5891 5891 5890 5890 5891 5891 5892 5893 5892 5892 5893 5894 5894 5895 5896 5897 5897 5897 5898 5898 5899 5899 5900 5900 5900 5901 5901 5901 5902 5902 5903 5903 5903 5903 5904 5904 5904 5904 5904 5903 5904 5904 5904 5905 5905 5905 5905 5906 5906 5906 5907 5907 5907 5908 5908
5911 5911 5911 5911 5910 5909 5909 5909 5909 5908 5906 5905 5904 5904 5903 5902 5900 5898 5897 5897 5897 5895 5894 5892 5891 5890 5890 5890 5888 5887 5889 5890 5889 5889 5890 5890 5891 5891 5891 5892 5892 5893 5893 5893 5895 5896 5896 5896 5897 5898 5898 5898 5899 5899 5899 5900 5900 5900 5900 5900 5901 5901 5902 5902 5902 5903 5903 5903 5903 5903 5903 5903 5903 5903 5904 5904 5904 5904 5905 5905 5906 5906 5906 5907 5907
5909 5909 5909 5909 5908 5908 5907 5907 5907 5907 5906 5905 5904 5903 5902 5901 5900 5898 5897 5896 5896 5895 5893 5892 5891 5890 5889 5889 5888 5887 5887 5889 5889 5889 5889 5890 5890 5890 5890 5891 5891 5891 5891 5890 5892 5894 5895 5895 5895 5896 5897 5897 5897 5898 5898 5898 5899 5899 5899 5899 5899 5900 5900 5900 5901 5901 5901 5902 5902 5902 5902 5902 5902 5902 5902 5903 5903 5904 5904 5904 5905 5905 5905 5906 5906
5908 5908 5908 5907 5906 5906 5905 5905 5905 5905 5905 5904 5903 5902 5902 5901 5899 5898 5897 5896 5896 5894 5893 5892 5891 5890 5889 5888 5888 5887 5887 5888 5888 5888 5889 5889 5889 5889 5888 5888 5888 5888 5888 5888 5890 5893 5893 5893 5894 5895 5896 5896 5896 5896 5896 5897 5897 5897 5897 5897 5898 5898 5899 5899 5899 5899 5900 5900 5901 5901 5901 5901 5901 5901 5902 5902 5902 5903 5903 5903 5903 5904 5904 5904 5905
5906 5906 5906 5905 5904 5904 5903 5903 5904 5903 5903 5903 5902 5901 5901 5900 5899 5898 5897 5897 5895 5894 5893 5892 5890 5889 5888 5888 5887 5887 5887 5887 5887 5887 5888 5888 5888 5887 5887 5887 5887 5887 5887 5887 5889 5891 5892 5892 5893 5894 5894 5895 5894 5894 5894 5895 5895 5896 5896 5896 5896 5897 5897 5898 5898 5898 5898 5898 5899 5899 5899 5900 5900 5900 5901 5901 5901 5901 5902 5902 5902 5902 5903 5903 5903
5905 5905 5904 5903 5903 5902 5902 5902 5902 5902 5901 5901 5901 5900 5900 5900 5899 5898 5898 5897 5896 5894 5893 5892 5891 5890 5888 5888 5887 5887 5886 5886 5886 5886 5887 5887 5887 5886 5886 5886 5887 5887 5887 5887 5889 5890 5890 5891 5892 5893 5893 5893 5893 5893 5893 5893 5894 5895 5895 5895 5895 5895 5896 5897 5897 5897 5897 5897 5897 5897 5898 5898 5898 5898 5899 5900 5900 5900 5900 5901 5901 5901 5901 5902 5902
5903 5903 5903 5902 5901 5901 5900 5900 5900 5900 5900 5899 5899 5899 5899 5899 5899 5898 5898 5898 5896 5894 5893 5892 5891 5890 5889 5888 5887 5887 5887 5886 5886 5886 5886 5886 5886 5885 5885 5885 5885 5886 5886 5886 5887 5888 5889 5890 5890 5891 5892 5892 5892 5891 5892 5892 5893 5893 5893 5894 5894 5894 5895 5895 5896 5896 5896 5896 5896 5896 5896 5896 5896 5897 5897 5898 5898 5899 5899 5899 5899 5899 5900 5900 5900
5901 5901 5901 5900 5900 5899 5899 5899 5898 5898 5898 5898 5898 5898 5898 5898 5898 5898 5898 5898 5897 5895 5894 5892 5891 5891 5889 5889 5888 5888 5887 5887 5886 5886 5886 5886 5885 5885 5884 5884 5884 5885 5885 5885 5885 5886 5887 5887 5888 5889 5889 5890 5890 5890 5890 5890 5891 5891 5892 5892 5892 5892 5893 5893 5894 5894 5894 5894 5894 5894 5894 5894 5894 5895 5895 5895 5896 5896 5897 5897 5897 5897 5897 5898 5898
5899 5899 5898 5898 5898 5898 5898 5898 5897 5897 5897 5897 5897 5897 5897 5897 5897 5897 5897 5897 5897 5896 5894 5893 5892 5891 5890 5890 5889 5889 5888 5888 5888 5887 5887 5886 5886 5885 5884 5884 5884 5884 5884 5884 5884 5884 5885 5886 5886 5887 5887 5887 5888 5888 5888 5888 5889 5889 5889 5889 5889 5890 5890 5891 5891 5891 5891 5891 5891 5891 5891 5891 5892 5892 5892 5893 5893 5894 5894 5895 5895 5895 5895 5895 5895
5898 5897 5896 5896 5896 5896 5896 5896 5896 5896 5895 5896 5896 5896 5896 5896 5896 5896 5896 5896 5896 5895 5894 5894 5893 5892 5891 5890 5890 5889 5889 5889 5888 5888 5887 5887 5886 5886 5885 5885 5884 5884 5884 5884 5884 5884 5884 5885 5885 5885 5885 5885 5886 5886 5886 5886 5887 5887 5887 5887 5886 5887 5887 5887 5887 5888 5888 5888 5888 5888 5888 5889 5889 5889 5890 5890 5891 5891 5892 5892 5892 5892 5892 5892 5893
5896 5895 5894 5894 5894 5894 5894 5894 5894 5894 5894 5894 5895 5895 5895 5896 5896 5895 5895 5895 5895 5894 5894 5894 5893 5892 5892 5891 5891 5890 5890 5889 5888 5888 5888 5887 5887 5886 5886 5885 5885 5884 5884 5884 5884 5884 5884 5884 5884 5884 5884 5884 5884 5884 5884 5885 5885 5885 5885 5884 5884 5884 5884 5883 5883 5883 5883 5883 5884 5885 5886 5886 5886 5887 5888 5888 5889 5889 5889 5890 5890 5890 5890 5890 5890
5894 5893 5893 5892 5892 5892 5893 5893 5893 5893 5893 5894 5894 5895 5895 5895 5895 5895 5894 5894 5894 5893 5893 5893 5892 5892 5892 5891 5891 5890 5890 5889 5888 5888 5887 5887 5887 5886 5886 5885 5885 5884 5884 5884 5883 5883 5883 5883 5883 5883 5883 5883 5883 5883 5883 5883 5883 5883 5882 5882 5881 5880 5880 5879 5879 5879 5879 5880 5882 5883 5884 5884 5884 5885 5886 5886 5886 5887 5887 5887 5887 5887 5887 5887 5887
5893 5892 5892 5891 5891 5891 5891 5891 5892 5892 5893 5893 5894 5895 5895 5895 5894 5894 5894 5894 5893 5892 5892 5892 5891 5891 5891 5890 5890 5890 5889 5889 5888 5887 5887 5886 5886 5885 5885 5884 5884 5884 5884 5883 5883 5883 5883 5882 5882 5882 5882 5882 5882 5882 5882 5882 5881 5881 5880 5879 5878 5878 5877 5877 5876 5876 5878 5879 5880 5881 5881 5881 5881 5882 5883 5883 5883 5884 5884 5885 5885 5885 5885 5884 5884
5892 5891 5891 5891 5891 5891 5891 5891 5891 5892 5893 5893 5894 5894 5895 5894 5894 5894 5894 5893 5892 5891 5891 5890 5890 5889 5889 5888 5888 5888 5888 5888 5887 5886 5886 5885 5885 5884 5884 5883 5883 5882 5882 5882 5882 5881 5881 5881 5881 5881 5880 5880 5880 5880 5880 5880 5879 5878 5878 5876 5876 5875 5875 5874 5874 5875 5877 5879 5879 5878 5877 5878 5878 5877 5878 5878 5878 5879 5879 5880 5881 5882 5883 5883 5883
5891 5890 5890 5890 5890 5891 5891 5891 5892 5892 5892 5893 5893 5894 5894 5894 5893 5893 5892 5892 5891 5890 5889 5889 5888 5887 5887 5886 5886 5885 5885 5885 5884 5884 5884 5883 5883 5882 5882 5881 5880 5880 5880 5880 5880 5879 5879 5878 5878 5878 5878 5878 5878 5878 5878 5878 5877 5876 5875 5874 5873 5873 5873 5874 5875 5876 5878 5879 5877 5875 5874 5874 5873 5872 5872 5873 5873 5874 5874 5875 5878 5880 5882 5882 5882
5890 5890 5890 5890 5890 5890 5891 5891 5891 5891 5892 5892 5893 5893 5893 5893 5892 5891 5891 5890 5890 5889 5888 5887 5886 5885 5884 5884 5883 5882 5882 5882 5881 5881 5880 5880 5879 5879 5879 5878 5877 5877 5877 5877 5877 5876 5876 5876 5875 5875 5875 5875 5875 5875 5875 5875 5874 5874 5872 5870 5871 5871 5870 5871 5871 5872 5877 5876 5871 5870 5871 5870 5869 5868 5870 5871 5871 5871 5873 5876 5878 5879 5879 5880 5880
5890 5890 5890 5891 5890 5890 5891 5891 5891 5891 5891 5891 5891 5891 5892 5891 5891 5889 5889 5889 5888 5886 5886 5885 5884 5883 5881 5880 5880 5879 5879 5879 5879 5878 5877 5876 5876 5875 5875 5874 5874 5874 5873 5873 5873 5873 5873 5872 5872 5872 5871 5871 5871 5871 5871 5871 5870 5869 5867 5865 5866 5866 5866 5866 5865 5866 5871 5869 5865 5866 5868 5866 5865 5866 5867 5867 5867 5870 5874 5875 5874 5874 5874 5875 5875
5890 5890 5890 5890 5890 5890 5891 5891 5890 5890 5890 5890 5889 5889 5890 5889 5889 5888 5887 5886 5885 5884 5883 5882 5881 5880 5879 5878 5877 5876 5876 5876 5876 5875 5874 5873 5872 5871 5871 5870 5870 5870 5870 5870 5870 5869 5869 5868 5868 5868 5868 5868 5867 5867 5867 5867 5866 5864 5862 5861 5862 5863 5862 5862 5862 5864 5866 5865 5864 5865 5864 5862 5862 5862 5863 5862 5864 5869 5871 5869 5867 5868 5869 5869 5870
5891 5891 5890 5890 5890 5890 5890 5890 5890 5889 5888 5888 5887 5887 5887 5887 5886 5885 5884 5883 5882 5881 5880 5879 5878 5877 5876 5875 5874 5873 5872 5872 5872 5871 5870 5869 5868 5867 5867 5866 5866 5866 5866 5866 5866 5865 5865 5864 5864 5863 5863 5863 5863 5863 5863 5862 5861 5860 5858 5857 5859 5859 5858 5857 5859 5862 5863 5863 5863 5862 5860 5859 5857 5857 5858 5858 5861 5867 5867 5863 5863 5864 5865 5865 5865
5891 5890 5889 5889 5889 5889 5889 5888 5888 5887 5886 5886 5885 5885 5884 5884 5883 5881 5880 5879 5879 5878 5877 5876 5875 5874 5872 5871 5869 5868 5868 5868 5867 5867 5866 5865 5864 5863 5863 5862 5862 5862 5862 5862 5862 5861 5861 5860 5859 5859 5858 5858 5858 5858 5858 5857 5857 5855 5854 5853 5854 5855 5853 5853 5855 5858 5858 5857 5858 5858 5857 5855 5853 5853 5853 5854 5858 5863 5862 5859 5859 5860 5861 5861 5861
5890 5890 5889 5888 5888 5887 5887 5886 5886 5885 5884 5883 5882 5882 5881 5881 5880 5878 5877 5876 5875 5875 5874 5872 5871 5870 5869 5867 5865 5864 5863 5863 5862 5862 5861 5860 5859 5859 5858 5858 5858 5857 5857 5857 5856 5856 5855 5854 5854 5854 5853 5852 5852 5852 5852 5852 5852 5851 5850 5849 5849 5849 5848 5848 5849 5852 5853 5852 5852 5853 5853 5851 5850 5849 5849 5850 5854 5857 5856 5855 5855 5856 5857 5857 5858
5890 5889 5889 5888 5887 5886 5885 5885 5884 5882 5881 5880 5879 5878 5878 5878 5877 5875 5874 5872 5871 5870 5870 5869 5867 5866 5864 5863 5862 5860 5859 5859 5858 5857 5856 5855 5854 5854 5853 5853 5853 5853 5852 5851 5850 5849 5848 5848 5847 5847 5847 5847 5847 5847 5847 5848 5848 5847 5846 5845 5844 5843 5843 5842 5843 5845 5847 5847 5847 5847 5848 5847 5846 5845 5844 5846 5849 5851 5850 5851 5852 5852 5852 5853 5854
5889 5889 5888 5888 5886 5885 5884 5883 5882 5880 5879 5877 5875 5875 5875 5874 5873 5871 5870 5869 5867 5866 5865 5864 5863 5861 5860 5859 5858 5857 5856 5854 5853 5851 5851 5850 5849 5848 5848 5847 5847 5847 5846 5846 5845 5843 5842 5841 5840 5841 5841 5841 5840 5841 5841 5842 5842 5842 5842 5840 5839 5839 5838 5837 5838 5839 5840 5841 5841 5841 5842 5842 5841 5840 5839 5840 5843 5844 5845 5846 5847 5848 5848 5849 5850
5887 5887 5886 5885 5884 5882 5881 5880 5879 5877 5876 5873 5872 5872 5871 5870 5868 5867 5866 5865 5864 5862 5861 5860 5858 5857 5856 5854 5853 5852 5851 5850 5848 5847 5846 5845 5844 5843 5842 5842 5841 5841 5840 5840 5840 5838 5837 5836 5835 5834 5835 5834 5834 5834 5835 5835 5836 5835 5835 5834 5833 5833 5832 5832 5832 5832 5834 5835 5836 5836 5836 5836 5836 5836 5835 5836 5837 5839 5840 5841 5842 5843 5844 5845 5845
5885 5884 5883 5882 5881 5879 5878 5877 5876 5874 5872 5871 5870 5870 5868 5867 5866 5864 5863 5862 5860 5859 5858 5856 5855 5853 5852 5850 5849 5847 5846 5845 5843 5842 5841 5840 5838 5838 5837 5836 5836 5835 5835 5834 5834 5833 5832 5831 5830 5829 5829 5828 5828 5829 5829 5829 5830 5830 5829 5828 5828 5827 5827 5826 5826 5827 5828 5829 5831 5831 5831 5831 5831 5831 5831 5831 5833 5835 5836 5837 5838 5839 5839 5840 5840
5884 5882 5881 5880 5878 5877 5876 5875 5874 5872 5870 5869 5868 5867 5866 5864 5863 5861 5859 5858 5856 5855 5854 5853 5851 5850 5848 5847 5845 5844 5842 5841 5839 5838 5836 5835 5833 5833 5832 5831 5830 5830 5829 5829 5828 5827 5826 5825 5825 5824 5823 5822 5822 5822 5823 5823 5824 5824 5823 5823 5822 5822 5822 5822 5821 5822 5822 5823 5824 5825 5825 5825 5825 5825 5825 5826 5827 5829 5830 5831 5832 5833 5834 5835 5835
5882 5881 5880 5878 5877 5876 5875 5874 5872 5870 5868 5867 5866 5864 5863 5861 5859 5858 5856 5854 5852 5851 5850 5848 5847 5846 5844 5843 5841 5840 5838 5836 5835 5833 5832 5830 5828 5827 5826 5825 5824 5824 5823 5823 5822 5821 5821 5819 5819 5818 5817 5816 5816 5815 5815 5816 5816 5817 5817 5817 5816 5816 5816 5816 5816 5816 5816 5816 5817 5818 5818 5819 5820 5820 5820 5821 5821 5822 5824 5825 5826 5826 5827 5829 5829
5881 5879 5878 5876 5875 5874 5873 5872 5871 5868 5866 5864 5863 5862 5860 5858 5856 5855 5853 5851 5849 5847 5846 5844 5843 5841 5840 5838 5836 5835 5833 5831 5830 5828 5826 5825 5823 5822 5820 5819 5818 5817 5817 5816 5816 5815 5815 5814 5813 5812 5811 5811 5810 5809 5808 5808 5809 5809 5809 5810 5810 5810 5810 5810 5810 5810 5810 5811 5811 5812 5813 5813 5814 5814 5814 5815 5815 5816 5817 5819 5820 5820 5821 5822 5823
5880 5878 5877 5876 5874 5873 5872 5871 5869 5867 5864 5863 5861 5859 5857 5855 5854 5852 5850 5848 5846 5844 5842 5840 5839 5837 5835 5833 5832 5830 5828 5826 5825 5823 5821 5819 5818 5816 5815 5813 5812 5811 5810 5809 5809 5808 5808 5807 5806 5806 5805 5805 5804 5803 5802 5802 5802 5802 5802 5802 5803 5803 5803 5803 5804 5804 5804 5804 5805 5805 5806 5807 5807 5808 5809 5809 5809 5810 5811 5812 5813 5815 5815 5816 5817
5879 5878 5876 5875 5874 5872 5870 5869 5867 5865 5863 5861 5859 5857 5854 5852 5850 5849 5846 5844 5842 5840 5839 5837 5835 5833 5831 5829 5827 5825 5824 5822 5820 5818 5816 5814 5812 5811 5809 5808 5807 5806 5804 5803 5802 5801 5801 5800 5800 5799 5798 5798 5798 5797 5796 5796 5796 5796 5795 5795 5795 5796 5796 5797 5797 5797 5797 5798 5798 5799 5799 5800 5800 5801 5803 5803 5804 5804 5804 5805 5806 5808 5809 5810 5811
5878 5877 5875 5874 5873 5871 5869 5867 5865 5863 5861 5859 5856 5854 5851 5849 5847 5845 5843 5841 5839 5837 5835 5833 5831 5829 5827 5825 5823 5821 5819 5817 5815 5813 5811 5809 5807 5805 5803 5802 5800 5799 5798 5797 5796 5795 5794 5793 5792 5792 5791 5791 5791 5790 5789 5789 5790 5789 5789 5789 5789 5788 5789 5790 5790 5790 5790 5791 5791 5792 5792 5793 5794 5795 5796 5797 5798 5798 5799 5799 5800 5801 5802 5803 5805
5877 5876 5874 5873 5871 5869 5867 5865 5862 5860 5858 5856 5854 5851 5849 5847 5844 5842 5840 5838 5836 5834 5832 5829 5827 5825 5823 5821 5818 5816 5814 5812 5810 5808 5806 5804 5802 5800 5798 5796 5794 5792 5791 5789 5788 5788 5787 5786 5785 5784 5784 5783 5783 5782 5782 5782 5783 5783 5782 5783 5783 5782 5782 5782 5783 5783 5783 5783 5784 5785 5785 5786 5787 5787 5789 5790 5791 5792 5793 5793 5794 5795 5796 5797 5798
5877 5875 5873 5871 5869 5867 5865 5862 5860 5858 5856 5854 5851 5849 5847 5844 5842 5840 5838 5835 5833 5831 5829 5826 5824 5821 5819 5817 5814 5812 5810 5807 5805 5803 5800 5798 5796 5795 5792 5790 5789 5787 5785 5783 5781 5780 5779 5778 5776 5775 5775 5775 5774 5774 5775 5775 5775 5775 5775 5775 5776 5776 5776 5775 5775 5775 5775 5776 5777 5777 5778 5779 5780 5780 5782 5783 5784 5785 5786 5787 5788 5789 5790 5791 5792
5875 5873 5871 5869 5867 5864 5862 5859 5857 5855 5853 5851 5849 5847 5844 5842 5840 5838 5835 5833 5831 5828 5826 5823 5820 5818 5815 5812 5810 5808 5805 5802 5800 5797 5795 5792 5790 5788 5786 5784 5782 5780 5779 5777 5775 5773 5772 5770 5769 5767 5767 5766 5765 5766 5767 5767 5767 5767 5767 5767 5768 5768 5769 5769 5769 5767 5768 5769 5770 5771 5770 5771 5772 5774 5774 5775 5776 5777 5778 5779 5780 5782 5783 5785 5786
5874 5872 5869 5867 5864 5862 5859 5857 5855 5853 5851 5849 5847 5845 5842 5840 5838 5836 5833 5830 5828 5825 5823 5820 5817 5814 5811 5808 5806 5803 5800 5797 5794 5791 5788 5786 5783 5781 5778 5776 5774 5773 5772 5770 5769 5767 5766 5765 5763 5761 5760 5759 5758 5757 5758 5759 5759 5759 5759 5759 5760 5760 5760 5762 5762 5760 5760 5761 5763 5764 5764 5763 5764 5766 5767 5768 5769 5770 5770 5772 5773 5774 5776 5777 5779
5872 5870 5867 5865 5862 5860 5858 5855 5853 5851 5849 5847 5845 5843 5840 5838 5835 5833 5830 5827 5824 5822 5819 5816 5813 5810 5807 5804 5801 5798 5795 5791 5788 5785 5782 5779 5777 5774 5772 5770 5768 5766 5765 5764 5763 5761 5760 5759 5758 5757 5755 5754 5753 5751 5751 5751 5751 5752 5751 5751 5752 5752 5753 5753 5754 5753 5752 5754 5755 5756 5757 5756 5756 5758 5760 5761 5761 5762 5763 5765 5766 5767 5769 5770 5772
5871 5868 5866 5863 5861 5859 5856 5854 5851 5849 5847 5845 5843 5840 5837 5835 5832 5829 5827 5824 5821 5818 5816 5813 5809 5806 5803 5799 5795 5792 5789 5786 5783 5780 5777 5774 5771 5768 5766 5764 5762 5761 5759 5758 5757 5756 5756 5755 5754 5752 5751 5750 5749 5747 5746 5746 5746 5746 5745 5745 5745 5745 5746 5746 5746 5746 5746 5747 5747 5748 5749 5749 5749 5751 5754 5754 5754 5755 5757 5759 5760 5761 5762 5763 5765
5869 5867 5864 5862 5859 5857 5855 5852 5850 5847 5845 5843 5840 5838 5835 5832 5829 5826 5823 5821 5818 5815 5811 5808 5804 5801 5797 5794 5791 5787 5784 5781 5778 5775 5772 5769 5766 5764 5762 5760 5758 5757 5755 5753 5752 5752 5751 5750 5749 5748 5747 5746 5745 5743 5742 5742 5742 5741 5741 5740 5740 5740 5740 5740 5741 5741 5740 5740 5740 5741 5743 5743 5742 5745 5747 5747 5747 5748 5750 5751 5752 5754 5755 5756 5758
5867 5865 5862 5860 5858 5855 5853 5851 5848 5845 5843 5840 5838 5835 5832 5829 5826 5823 5820 5817 5813 5810 5806 5803 5799 5796 5792 5789 5786 5782 5779 5776 5774 5771 5769 5766 5763 5760 5758 5756 5754 5752 5751 5749 5748 5748 5747 5746 5745 5744 5742 5741 5741 5740 5739 5738 5738 5737 5737 5736 5735 5735 5736 5736 5736 5736 5735 5734 5734 5736 5739 5738 5737 5739 5740 5740 5740 5742 5742 5743 5744 5745 5747 5749 5751
5865 5863 5861 5858 5856 5854 5851 5849 5846 5843 5841 5839 5836 5833 5830 5827 5823 5819 5815 5811 5808 5804 5800 5797 5793 5790 5787 5784 5781 5778 5776 5773 5771 5768 5765 5763 5760 5757 5754 5752 5750 5749 5747 5745 5744 5743 5742 5741 5740 5739 5738 5737 5736 5736 5735 5735 5734 5733 5733 5732 5731 5731 5732 5731 5731 5731 5731 5730 5729 5731 5734 5734 5732 5733 5733 5733 5734 5735 5735 5736 5737 5738 5739 5741 5743
5864 5861 5859 5857 5855 5852 5849 5847 5844 5841 5839 5836 5833 5830 5827 5823 5819 5815 5811 5807 5803 5799 5795 5792 5789 5786 5783 5781 5778 5775 5772 5770 5767 5764 5762 5759 5756 5754 5751 5749 5746 5745 5743 5741 5740 5739 5738 5737 5736 5735 5734 5733 5732 5732 5731 5731 5730 5730 5729 5728 5728 5728 5728 5728 5727 5726 5726 5726 5726 5727 5729 5729 5727 5727 5728 5728 5728 5729 5729 5729 5730 5731 5732 5734 5736
5862 5860 5857 5855 5853 5850 5847 5844 5842 5839 5836 5834 5830 5827 5823 5819 5815 5811 5807 5803 5799 5795 5792 5789 5786 5783 5780 5777 5775 5772 5769 5767 5764 5761 5759 5756 5754 5751 5748 5746 5743 5741 5739 5737 5736 5735 5734 5733 5732 5731 5730 5729 5729 5729 5728 5728 5727 5727 5726 5726 5725 5725 5725 5724 5724 5723 5722 5723 5723 5723 5724 5724 5723 5722 5723 5722 5722 5722 5723 5723 5724 5725 5726 5727 5729
5860 5858 5855 5853 5850 5848 5845 5842 5839 5837 5834 5831 5827 5823 5819 5815 5811 5808 5804 5800 5796 5793 5790 5786 5783 5780 5777 5774 5771 5769 5766 5763 5761 5758 5755 5753 5751 5748 5746 5743 5740 5738 5735 5733 5732 5731 5730 5729 5728 5728 5727 5726 5726 5726 5725 5725 5725 5725 5724 5724 5723 5722 5722 5721 5720 5719 5719 5720 5720 5720 5720 5719 5718 5718 5718 5717 5716 5716 5716 5717 5718 5719 5720 5722 5723